This is the latest recevied weather packets stored in our database for station/object WP3OF. If no packets are shown the sender has not sent any weather packets the latest 10 day(s).
| Time | Temp. | Humidity | Pressure | Rain* | Wind** | Luminosity | Snow |
|---|---|---|---|---|---|---|---|
| 1777134859 | 27.22° C | 67% | 1015.2 hPa | 0 mm | - | - | - |
| 1777134555 | 27.22° C | 66% | 1015.3 hPa | 0 mm | - | - | - |
| 1777134251 | 27.22° C | 67% | 1015.3 hPa | 0 mm | - | - | - |
| 1777133948 | 27.22° C | 66% | 1015.3 hPa | 0 mm | - | - | - |
| 1777133644 | 27.22° C | 64% | 1015.2 hPa | 0 mm | - | - | - |
| 1777133343 | 28.33° C | 62% | 1015.1 hPa | 0 mm | - | - | - |
| 1777133043 | 28.33° C | 64% | 1015.5 hPa | 0 mm | - | - | - |
| 1777132739 | 28.33° C | 63% | 1015.5 hPa | 0 mm | - | - | - |
| 1777132435 | 27.22° C | 68% | 1015.6 hPa | 0 mm | - | - | - |
| 1777132133 | 27.22° C | 65% | 1015.5 hPa | 0 mm | - | - | - |
| 1777131829 | 27.22° C | 66% | 1015.5 hPa | 0 mm | - | - | - |
| 1777131526 | 27.22° C | 66% | 1015.7 hPa | 0 mm | - | - | - |
| 1777131221 | 26.67° C | 68% | 1015.7 hPa | 0 mm | - | - | - |
| 1777130921 | 26.67° C | 68% | 1015.8 hPa | 0 mm | - | - | - |
| 1777130617 | 26.67° C | 69% | 1016 hPa | 0 mm | - | - | - |
| 1777130314 | 26.67° C | 67% | 1016 hPa | 0 mm | - | - | - |
| 1777130011 | 27.22° C | 66% | 1016 hPa | 0 mm | - | - | - |
| 1777129706 | 27.22° C | 65% | 1015.9 hPa | 0 mm | - | - | - |
| 1777129406 | 27.22° C | 66% | 1015.9 hPa | 0 mm | - | - | - |
| 1777129100 | 26.67° C | 66% | 1015.8 hPa | 0 mm | - | - | - |
| 1777128796 | 27.22° C | 68% | 1016 hPa | 0 mm | - | - | - |
| 1777128494 | 26.67° C | 69% | 1015.8 hPa | 0 mm | - | - | - |
| 1777128190 | 26.67° C | 70% | 1016 hPa | 0 mm | - | - | - |
| 1777127889 | 26.67° C | 68% | 1016 hPa | 0 mm | - | - | - |
| 1777127585 | 27.22° C | 67% | 1015.8 hPa | 0 mm | - | - | - |
* Rain latest hour (hover to see other rain measurements)
** Current wind speed in m/s (hover to see current wind gust speed)